User: anonymous   Login
Location: Unspecified
(0.0000°N, 0.0000°E)
Time: 02:10:26
(UTC+00:00)
Language:

STARLINK-31063 - Orbit

View from above orbital plane
View from above orbital plane
View from above satellite
View from above satellite

Ground track
Ground track

The orbit is defined by the following mean orbital elements,

1 58547U          26145.19378002 +.00000000 +00000-0 -13824-3 0 00002
2 58547  53.1602  57.0441 0001062  82.5688 277.5434 15.30219687    09
Epoch (UTC): 25 May 2026 04:39:02
Eccentricity: 0.0001062
inclination: 53.1602°
perigee height: 474 km
apogee height: 476 km
right ascension of ascending node: 57.0441°
argument of perigee: 82.5688°
revolutions per day: 15.30219687
mean anomaly at epoch: 277.5434°

The dashed part of the orbit path shows where the satellite is in the earth's shadow,  

DLR